| time (UTC) | temp F | wind direction | speed knots | gust knots | rain 1hr in | rain 24hr in | rain mn in | humidity % | barometer mb |
| 20260509014505 | 62 | 279 | 0.0 | 4.3 | 0.00 | 0.00 | 0.00 | 75 | 1028.2 |
| 20260509013013 | 62 | 234 | 0.9 | 4.3 | 0.00 | 0.00 | 0.00 | 76 | 1028.2 |
| 20260509011503 | 60 | 217 | 0.0 | 2.6 | 0.00 | 0.00 | 0.00 | 80 | 1028.4 |
| 20260509010001 | 61 | 190 | 2.6 | 5.2 | 0.00 | 0.00 | 0.00 | 80 | 1028.4 |
| 20260509004625 | 61 | 184 | 0.9 | 3.5 | 0.00 | 0.00 | 0.00 | 82 | 1028.4 |
| 20260509004505 | 61 | 184 | 1.7 | 3.5 | 0.00 | 0.00 | 0.00 | 82 | 1028.3 |
| 20260509003101 | 60 | 144 | 0.0 | 3.5 | 0.00 | 0.00 | 0.00 | 86 | 1028.2 |
| 20260509001555 | 59 | 183 | 1.7 | 6.1 | 0.00 | 0.00 | 0.00 | 89 | 1028.3 |
| 20260509000053 | 58 | 200 | 0.9 | 2.6 | 0.00 | 0.00 | 0.00 | 91 | 1028.4 |
| 20260508234552 | 57 | 184 | 0.9 | 5.2 | 0.00 | 0.00 | 0.00 | 92 | 1028.3 |
| 20260508233058 | 56 | 207 | 0.0 | 1.7 | 0.00 | 0.00 | 0.00 | 93 | 1028.3 |
| 20260508231545 | 56 | 253 | 0.0 | 2.6 | 0.00 | 0.00 | 0.00 | 93 | 1028.3 |
| 20260508230054 | 55 | 241 | 0.0 | 1.7 | 0.00 | 0.00 | 0.00 | 93 | 1028.2 |
| 20260508224540 | 54 | 292 | 0.0 | 0.0 | 0.00 | 0.00 | 0.00 | 93 | 1028.0 |
| 20260508223039 | 54 | 294 | 0.0 | 0.0 | 0.00 | 0.00 | 0.00 | 93 | 1027.9 |
| 20260508221540 | 53 | 294 | 0.0 | 0.9 | 0.00 | 0.00 | 0.00 | 93 | 1027.8 |
| 20260508220036 | 53 | 294 | 0.0 | 0.9 | 0.00 | 0.00 | 0.00 | 92 | 1027.6 |
| 20260508214536 | 53 | 292 | 0.0 | 0.0 | 0.00 | 0.00 | 0.00 | 92 | 1027.5 |
| 20260508213035 | 53 | 292 | 0.0 | 0.0 | 0.00 | 0.00 | 0.00 | 92 | 1027.5 |
| 20260508211536 | 53 | 292 | 0.0 | 0.9 | 0.00 | 0.00 | 0.00 | 92 | 1027.4 |
| 20260508210039 | 54 | 202 | 0.0 | 0.0 | 0.00 | 0.00 | 0.00 | 92 | 1027.3 |
| 20260508204537 | 54 | 202 | 0.0 | 0.0 | 0.00 | 0.00 | 0.00 | 92 | 1027.3 |
| 20260508203032 | 54 | 203 | 0.0 | 0.9 | 0.00 | 0.00 | 0.00 | 92 | 1027.1 |
| 20260508201531 | 54 | 306 | 0.0 | 0.0 | 0.00 | 0.00 | 0.00 | 92 | 1027.0 |
| 20260508200039 | 53 | 306 | 0.0 | 0.0 | 0.00 | 0.00 | 0.00 | 92 | 1026.8 |
| 20260508194529 | 53 | 306 | 0.0 | 0.0 | 0.00 | 0.00 | 0.00 | 91 | 1026.6 |
| 20260508193028 | 54 | 306 | 0.0 | 0.0 | 0.00 | 0.00 | 0.00 | 91 | 1026.4 |
| 20260508191525 | 54 | 306 | 0.0 | 0.0 | 0.00 | 0.00 | 0.00 | 91 | 1026.3 |
| 20260508190029 | 54 | 308 | 0.0 | 0.9 | 0.00 | 0.00 | 0.00 | 91 | 1026.2 |
| 20260508184550 | 54 | 306 | 0.0 | 1.7 | 0.00 | 0.00 | 0.00 | 91 | 1026.2 |
| 20260508183024 | 54 | 300 | 0.0 | 1.7 | 0.00 | 0.00 | 0.00 | 90 | 1026.0 |
| 20260508181539 | 54 | 298 | 0.0 | 2.6 | 0.00 | 0.00 | 0.00 | 90 | 1025.9 |
| 20260508180020 | 53 | 300 | 0.0 | 1.7 | 0.00 | 0.00 | 0.00 | 90 | 1025.8 |
| 20260508174520 | 53 | 294 | 0.0 | 1.7 | 0.00 | 0.00 | 0.00 | 88 | 1025.9 |
| 20260508173020 | 53 | 271 | 0.0 | 0.0 | 0.00 | 0.00 | 0.00 | 87 | 1025.8 |
| 20260508171520 | 54 | 271 | 0.0 | 1.7 | 0.00 | 0.00 | 0.00 | 87 | 1025.8 |
| 20260508170019 | 54 | 238 | 0.0 | 2.6 | 0.00 | 0.00 | 0.00 | 88 | 1026.0 |
| 20260508164518 | 54 | 219 | 0.0 | 3.5 | 0.00 | 0.00 | 0.00 | 88 | 1025.8 |
| 20260508163017 | 54 | 275 | 0.0 | 2.6 | 0.00 | 0.00 | 0.00 | 88 | 1025.8 |
| 20260508161516 | 53 | 269 | 0.0 | 1.7 | 0.00 | 0.00 | 0.00 | 88 | 1025.8 |
| 20260508160018 | 53 | 263 | 0.0 | 0.0 | 0.00 | 0.00 | 0.00 | 88 | 1025.7 |
| 20260508154516 | 53 | 263 | 0.0 | 0.0 | 0.00 | 0.00 | 0.00 | 88 | 1025.8 |
| 20260508153016 | 53 | 263 | 0.0 | 2.6 | 0.00 | 0.00 | 0.00 | 88 | 1025.7 |
| 20260508151514 | 53 | 278 | 0.0 | 0.0 | 0.00 | 0.00 | 0.00 | 88 | 1025.7 |
| 20260508150019 | 53 | 275 | 0.0 | 0.0 | 0.00 | 0.00 | 0.00 | 87 | 1025.6 |
| 20260508144527 | 53 | 275 | 0.0 | 0.0 | 0.00 | 0.00 | 0.00 | 86 | 1025.7 |
| 20260508143010 | 54 | 275 | 0.0 | 0.0 | 0.00 | 0.00 | 0.00 | 86 | 1025.6 |
| 20260508141508 | 54 | 275 | 0.0 | 1.7 | 0.00 | 0.00 | 0.00 | 86 | 1025.6 |
| 20260508140010 | 54 | 244 | 0.0 | 0.0 | 0.00 | 0.00 | 0.00 | 87 | 1025.6 |
| 20260508134506 | 54 | 244 | 0.0 | 0.0 | 0.00 | 0.00 | 0.00 | 86 | 1025.6 |
| 20260508133006 | 54 | 244 | 0.0 | 0.0 | 0.00 | 0.00 | 0.00 | 85 | 1025.7 |
| 20260508131506 | 55 | 244 | 0.0 | 0.0 | 0.00 | 0.00 | 0.00 | 85 | 1025.7 |
| 20260508130005 | 55 | 244 | 0.0 | 2.6 | 0.00 | 0.00 | 0.00 | 85 | 1025.7 |
| 20260508124505 | 55 | 235 | 0.9 | 4.3 | 0.00 | 0.00 | 0.00 | 85 | 1025.9 |
| 20260508123005 | 55 | 213 | 0.9 | 2.6 | 0.00 | 0.00 | 0.00 | 85 | 1025.9 |
| 20260508121505 | 56 | 223 | 0.9 | 5.2 | 0.00 | 0.00 | 0.00 | 86 | 1026.0 |
| 20260508120004 | 56 | 216 | 0.0 | 2.6 | 0.00 | 0.00 | 0.00 | 86 | 1026.1 |
| 20260508114501 | 55 | 224 | 0.0 | 2.6 | 0.00 | 0.00 | 0.00 | 86 | 1025.9 |
| 20260508113001 | 55 | 234 | 0.0 | 2.6 | 0.00 | 0.00 | 0.00 | 86 | 1025.6 |
| 20260508111608 | 55 | 233 | 0.0 | 5.2 | 0.00 | 0.00 | 0.00 | 86 | 1025.6 |
| 20260508104558 | 55 | 261 | 0.0 | 1.7 | 0.00 | 0.00 | 0.00 | 86 | 1025.5 |
| 20260508103101 | 55 | 280 | 0.0 | 1.7 | 0.00 | 0.00 | 0.00 | 86 | 1025.4 |
| 20260508101615 | 55 | 269 | 0.0 | 1.7 | 0.00 | 0.00 | 0.00 | 85 | 1025.2 |
| 20260508100056 | 56 | 243 | 0.0 | 2.6 | 0.00 | 0.00 | 0.00 | 85 | 1025.2 |
| 20260508094555 | 56 | 246 | 0.0 | 3.5 | 0.00 | 0.00 | 0.00 | 85 | 1025.0 |
| 20260508093056 | 56 | 233 | 0.0 | 4.3 | 0.00 | 0.00 | 0.00 | 85 | 1025.1 |
| 20260508091606 | 56 | 269 | 0.0 | 2.6 | 0.00 | 0.00 | 0.00 | 85 | 1025.0 |
| 20260508090108 | 56 | 260 | 0.0 | 2.6 | 0.00 | 0.00 | 0.00 | 85 | 1024.9 |
| 20260508084553 | 56 | 244 | 0.9 | 3.5 | 0.00 | 0.00 | 0.00 | 84 | 1024.9 |
| 20260508083051 | 56 | 206 | 0.0 | 6.1 | 0.00 | 0.00 | 0.00 | 84 | 1024.7 |
| 20260508081558 | 56 | 195 | 2.6 | 7.8 | 0.00 | 0.00 | 0.00 | 83 | 1024.6 |
| 20260508080048 | 56 | 223 | 1.7 | 4.3 | 0.00 | 0.00 | 0.00 | 82 | 1024.5 |
| 20260508074547 | 57 | 230 | 0.9 | 7.8 | 0.00 | 0.00 | 0.00 | 81 | 1024.0 |
| 20260508073052 | 57 | 222 | 0.9 | 7.0 | 0.00 | 0.00 | 0.00 | 80 | 1024.1 |
| 20260508071554 | 58 | 247 | 0.9 | 4.3 | 0.00 | 0.00 | 0.00 | 80 | 1023.9 |
| 20260508070046 | 59 | 180 | 1.7 | 5.2 | 0.00 | 0.00 | 0.00 | 77 | 1023.9 |
| 20260508064543 | 59 | 242 | 1.7 | 6.1 | 0.00 | 0.00 | 0.00 | 76 | 1023.6 |
| 20260508063043 | 59 | 197 | 4.3 | 9.6 | 0.00 | 0.00 | 0.00 | 75 | 1023.6 |
| 20260508061541 | 59 | 237 | 1.7 | 6.1 | 0.00 | 0.00 | 0.00 | 79 | 1023.4 |
| 20260508060041 | 59 | 193 | 1.7 | 6.1 | 0.00 | 0.00 | 0.00 | 78 | 1023.5 |
| 20260508054545 | 59 | 243 | 0.9 | 6.1 | 0.00 | 0.00 | 0.00 | 77 | 1023.5 |
| 20260508053101 | 60 | 214 | 5.2 | 9.6 | 0.00 | 0.00 | 0.00 | 73 | 1023.4 |
| 20260508051541 | 60 | 224 | 3.5 | 11.3 | 0.00 | 0.00 | 0.00 | 69 | 1023.2 |
| 20260508050041 | 61 | 250 | 2.6 | 7.8 | 0.00 | 0.00 | 0.00 | 69 | 1023.2 |
| 20260508044539 | 61 | 216 | 4.3 | 11.3 | 0.00 | 0.00 | 0.00 | 67 | 1023.0 |
| 20260508043038 | 61 | 263 | 5.2 | 11.3 | 0.00 | 0.00 | 0.00 | 67 | 1023.1 |
| 20260508041603 | 59 | 229 | 5.2 | 13.9 | 0.00 | 0.00 | 0.00 | 70 | 1023.1 |
| 20260508040043 | 60 | 268 | 7.8 | 14.8 | 0.00 | 0.00 | 0.00 | 72 | 1023.2 |
| 20260508034537 | 60 | 234 | 4.3 | 12.2 | 0.00 | 0.00 | 0.00 | 72 | 1023.0 |
| 20260508033035 | 61 | 254 | 5.2 | 12.2 | 0.00 | 0.00 | 0.00 | 71 | 1022.9 |
| 20260508031537 | 61 | 214 | 4.3 | 13.0 | 0.00 | 0.00 | 0.00 | 71 | 1022.8 |
| 20260508030036 | 60 | 233 | 6.1 | 12.2 | 0.00 | 0.00 | 0.00 | 73 | 1022.7 |
| 20260508024534 | 60 | 248 | 4.3 | 13.9 | 0.00 | 0.00 | 0.00 | 73 | 1023.1 |
| 20260508023034 | 60 | 233 | 4.3 | 16.5 | 0.00 | 0.00 | 0.00 | 72 | 1023.0 |
| 20260508021534 | 60 | 207 | 5.2 | 13.0 | 0.00 | 0.00 | 0.00 | 74 | 1023.0 |
| 20260508020039 | 60 | 227 | 5.2 | 10.4 | 0.00 | 0.00 | 0.00 | 75 | 1023.2 |